User: anonymous
Location: Unspecified
(0.0000°N, 0.0000°E)
Time: 00:29:49
(UTC+00:00)
Language:

PLEIADES 1B - Orbit

View from above orbital plane
View from above orbital plane
View from above satellite
View from above satellite

Ground track
Ground track

The orbit data is extracted from the following two-line orbital elements,

1 39019U 12068A   14293.39097310  .00000440  00000-0  10449-3 0  1812
2 39019 098.1884 006.6033 0001510 082.8585 277.2790 14.58582820100203
Epoch (UTC): 20 October 2014 09:23:00
Eccentricity: 0.0001510
inclination: 98.1884°
perigee height: 696 km
apogee height: 699 km
right ascension of ascending node: 6.6033°
argument of perigee: 82.8585°
revolutions per day: 14.58582820
mean anomaly at epoch: 277.2790°
orbit number at epoch: 10020

The dashed part of the orbit path shows where the satellite is in the earth's shadow,  

DLR